Regional Weather Roundup
Issued by NWS State College, PA

Home | Current Version | Previous Version | Text Only | Print | Product List | Glossary On
Versions: 1 2 3 4 5 6 7 8 9 10 11 12 13 14 15 16 17 18 19 20 21 22 23 24 25 26 27 28 29 30 31 32 33 34 35 36 37 38 39 40 41 42 43 44 45 46 47 48 49 50
000
ASUS41 KCTP 091110
RWRCTP

REGIONAL WEATHER ROUNDUP
NATIONAL WEATHER SERVICE STATE COLLEGE PA
600 AM EST TUE FEB 09 2016

Note: "fair" indicates few or no clouds below 12,000 feet with no
significant weather and/or obstructions to visibility.

* = STATION THAT DOES NOT REPORT PRECIPITATION /E.G. RAIN...SNOW...ETC/
    THUNDER OR FOG.

PAZ002>004-007>009-013>016-020>023-029>032-091200-
WESTERN PENNSYLVANIA

CITY           SKY/WX    TMP DP  RH WIND       PRES   REMARKS
ERIE           CLOUDY    34  30  85 SW7       29.52S
MEADVILLE      CLOUDY    32  28  85 SW5       29.50R
FRANKLIN*      CLOUDY    30  27  86 SW5       29.52R
NEW CASTLE     CLOUDY    32  30  92 CALM      29.53S FOG
BEAVER COUNTY  NOT AVBL
BUTLER*        CLOUDY    30  28  93 CALM      29.55S
PITTSBURGH INT LGT SNOW  32  30  92 SW3       29.52R FOG
PITTSBURGH     CLOUDY    32  30  92 S5        29.51S FOG
INDIANA*       CLOUDY    30  30 100 CALM      29.54S
LATROBE        MIX PCPN  32  32 100 CALM      29.53S
WASHINGTON CO* CLOUDY    30  28  93 CALM      29.53R
$$

PAZ004>006-010>012-017>019-024>028-033>037-041-042-045-046-049>053-091200-
CENTRAL PENNSYLVANIA

CITY           SKY/WX    TMP DP  RH WIND       PRES   REMARKS
BRADFORD       CLOUDY    30  27  88 SW5       29.46R
DUBOIS         CLOUDY    30  28  92 SW3       29.48S
CLEARFIELD     CLOUDY    30  28  92 CALM      29.50S FOG
JOHNSTOWN      CLOUDY    29  24  82 CALM      29.46S
ALTOONA        CLOUDY    32  28  85 CALM      29.50S FOG
STATE COLLEGE  LGT SNOW  32  30  93 CALM      29.51S
WILLIAMSPORT   CLOUDY    32  26  78 E12       29.57S
SELINSGROVE    CLOUDY    32  27  81 SE3       29.59S
FT INDIANTOWN  CLOUDY    29  29 100 NE5       29.60R
CAPITAL CITY   LGT SNOW  32  28  85 E10       29.59S FOG
HARRISBURG     LGT SNOW  32  28  85 E9        29.59R
YORK           LGT SNOW  32  30  92 E9        29.57S FOG
$$

PAZ038>040-043-044-047-048-054-055-060>062-067>071-091200-
EASTERN PENNSYLVANIA

CITY           SKY/WX    TMP DP  RH WIND       PRES   REMARKS
SCRANTON       CLOUDY    28  21  75 SE3       29.57S
MOUNT POCONO   CLOUDY    21  19  92 SE7       29.52F WCI  12
ALLENTOWN      CLOUDY    29  23  78 E9        29.62S
QUAKERTOWN*    CLOUDY    28  25  86 E5        29.62S
READING        CLOUDY    30  25  81 E5        29.61S
LANCASTER      CLOUDY    30  28  92 E9        29.60R FOG
COATESVILLE    CLOUDY    30  30 100 E8G16     29.61R
POTTSTOWN      CLOUDY    29  26  89 E3        29.63S
BLUE BELL        N/A     30  27  86 E7        29.63R
DOYLESTOWN     CLOUDY    27  25  92 CALM      29.63R
WILLOW GROVE   NOT AVBL
NORTH PHILA    CLOUDY    32  27  81 E10       29.66R
PHILADELPHIA   CLOUDY    32  27  81 E12       29.64S
$$



USA.gov is the U.S. government's official web portal to all federal, state and local government web resources and services.